![]() |
EMODnet Physics ERDDAP
Easier access to scientific data |
log in|
Brought to you by EMODnet Physics |
| Dataset Title: | NDBC - Collection of dew point temperature (DEWT) TimeSeries - IN SITU MultiPointTimeSeriesObservation
|
| Institution: | NDBC (Dataset ID: TS_DEWT_NDBC) |
| Information: | Summary
| License
| FGDC
| ISO 19115
| Metadata
| Background
| Subset
| Data Access Form
| Make a graph
|
| Name | Last modified | Size | Description | |
|---|---|---|---|---|
| Parent Directory | - | - | ||
| 45012_TS_DEWT_012010.nc | 26-Oct-2024 20:02 | 1030329 | ||
| 45012_TS_DEWT_022010.nc | 26-Oct-2024 20:02 | 1106817 | ||
| 45012_TS_DEWT_032010.nc | 26-Oct-2024 20:02 | 1111573 | ||
| 45012_TS_DEWT_032011.nc | 26-Oct-2024 20:02 | 1115075 | ||
| 45012_TS_DEWT_032012.nc | 26-Oct-2024 20:02 | 5191719 | ||
| 45012_TS_DEWT_032016.nc | 26-Oct-2024 20:02 | 429832 | ||
| 45012_TS_DEWT_042002.nc | 26-Oct-2024 20:02 | 425454 | ||
| 45012_TS_DEWT_042004.nc | 26-Oct-2024 20:02 | 449773 | ||
| 45012_TS_DEWT_042006.nc | 26-Oct-2024 20:02 | 429832 | ||
| 45012_TS_DEWT_042007.nc | 26-Oct-2024 20:02 | 449886 | ||
| 45012_TS_DEWT_042010.nc | 26-Oct-2024 20:02 | 429836 | ||
| 45012_TS_DEWT_042011.nc | 26-Oct-2024 20:02 | 429832 | ||
| 45012_TS_DEWT_042012.nc | 26-Oct-2024 20:02 | 450112 | ||
| 45012_TS_DEWT_042013.nc | 26-Oct-2024 20:02 | 449493 | ||
| 45012_TS_DEWT_042014.nc | 26-Oct-2024 20:02 | 451006 | ||
| 45012_TS_DEWT_042016.nc | 26-Oct-2024 20:02 | 1144034 | ||
| 45012_TS_DEWT_042017.nc | 26-Oct-2024 20:03 | 1265145 | ||
| 45012_TS_DEWT_042018.nc | 26-Oct-2024 20:03 | 453267 | ||
| 45012_TS_DEWT_042022.nc | 26-Oct-2024 20:03 | 1260261 | ||
| 45012_TS_DEWT_042023.nc | 26-Oct-2024 20:03 | 1268121 | ||
| 45012_TS_DEWT_052002.nc | 26-Oct-2024 20:03 | 4754771 | ||
| 45012_TS_DEWT_052004.nc | 26-Oct-2024 20:03 | 429831 | ||
| 45012_TS_DEWT_052005.nc | 26-Oct-2024 20:03 | 434934 | ||
| 45012_TS_DEWT_052006.nc | 26-Oct-2024 20:03 | 451724 | ||
| 45012_TS_DEWT_052007.nc | 26-Oct-2024 20:03 | 429833 | ||
| 45012_TS_DEWT_052008.nc | 26-Oct-2024 20:03 | 422217 | ||
| 45012_TS_DEWT_052009.nc | 26-Oct-2024 20:03 | 429829 | ||
| 45012_TS_DEWT_052010.nc | 26-Oct-2024 20:03 | 429783 | ||
| 45012_TS_DEWT_052011.nc | 26-Oct-2024 20:03 | 450663 | ||
| 45012_TS_DEWT_052012.nc | 26-Oct-2024 20:03 | 449838 | ||
| 45012_TS_DEWT_052013.nc | 26-Oct-2024 20:03 | 450573 | ||
| 45012_TS_DEWT_052014.nc | 26-Oct-2024 20:03 | 1144087 | ||
| 45012_TS_DEWT_052015.nc | 26-Oct-2024 20:03 | 1264507 | ||
| 45012_TS_DEWT_052016.nc | 26-Oct-2024 20:03 | 1264428 | ||
| 45012_TS_DEWT_052017.nc | 26-Oct-2024 20:03 | 1267085 | ||
| 45012_TS_DEWT_052018.nc | 26-Oct-2024 20:04 | 5498684 | ||
| 45012_TS_DEWT_052019.nc | 26-Oct-2024 20:04 | 429337 | ||
| 45012_TS_DEWT_052022.nc | 26-Oct-2024 20:04 | 450273 | ||
| 45012_TS_DEWT_052023.nc | 26-Oct-2024 20:04 | 447967 | ||
| 45012_TS_DEWT_062002.nc | 26-Oct-2024 20:04 | 429489 | ||
| 45012_TS_DEWT_062003.nc | 26-Oct-2024 20:04 | 448705 | ||
| 45012_TS_DEWT_062004.nc | 26-Oct-2024 20:04 | 429492 | ||
| 45012_TS_DEWT_062005.nc | 26-Oct-2024 20:04 | 429486 | ||
| 45012_TS_DEWT_062006.nc | 26-Oct-2024 20:04 | 448041 | ||
| 45012_TS_DEWT_062007.nc | 26-Oct-2024 20:04 | 449346 | ||
| 45012_TS_DEWT_062008.nc | 26-Oct-2024 20:04 | 449689 | ||
| 45012_TS_DEWT_062009.nc | 26-Oct-2024 20:04 | 995752 | ||
| 45012_TS_DEWT_062010.nc | 26-Oct-2024 20:04 | 1108759 | ||
| 45012_TS_DEWT_062011.nc | 26-Oct-2024 20:04 | 999682 | ||
| 45012_TS_DEWT_062012.nc | 26-Oct-2024 20:04 | 1115086 | ||
| 45012_TS_DEWT_062013.nc | 26-Oct-2024 20:04 | 4573877 | ||
| 45012_TS_DEWT_062014.nc | 26-Oct-2024 20:04 | 429836 | ||
| 45012_TS_DEWT_062015.nc | 26-Oct-2024 20:04 | 429801 | ||
| 45012_TS_DEWT_062016.nc | 26-Oct-2024 20:04 | 449900 | ||
| 45012_TS_DEWT_062017.nc | 26-Oct-2024 20:04 | 429761 | ||
| 45012_TS_DEWT_062018.nc | 26-Oct-2024 20:04 | 450010 | ||
| 45012_TS_DEWT_062019.nc | 26-Oct-2024 20:05 | 429829 | ||
| 45012_TS_DEWT_062020.nc | 26-Oct-2024 20:05 | 429835 | ||
| 45012_TS_DEWT_062021.nc | 26-Oct-2024 20:05 | 449691 | ||
| 45012_TS_DEWT_062022.nc | 26-Oct-2024 20:05 | 450356 | ||
| 45012_TS_DEWT_062023.nc | 26-Oct-2024 20:05 | 430982 | ||
| 45012_TS_DEWT_072002.nc | 26-Oct-2024 20:05 | 1144183 | ||
| 45012_TS_DEWT_072003.nc | 26-Oct-2024 20:05 | 1267424 | ||
| 45012_TS_DEWT_072004.nc | 26-Oct-2024 20:05 | 1263375 | ||
| 45012_TS_DEWT_072005.nc | 26-Oct-2024 20:05 | 5594222 | ||
| 45012_TS_DEWT_072006.nc | 26-Oct-2024 20:05 | 429490 | ||
| 45012_TS_DEWT_072007.nc | 26-Oct-2024 20:05 | 429487 | ||
| 45012_TS_DEWT_072008.nc | 26-Oct-2024 20:05 | 449082 | ||
| 45012_TS_DEWT_072009.nc | 26-Oct-2024 20:05 | 423233 | ||
| 45012_TS_DEWT_072010.nc | 26-Oct-2024 20:05 | 448619 | ||
| 45012_TS_DEWT_072011.nc | 26-Oct-2024 20:05 | 429322 | ||
| 45012_TS_DEWT_072012.nc | 26-Oct-2024 20:05 | 429489 | ||
| 45012_TS_DEWT_072013.nc | 26-Oct-2024 20:05 | 449098 | ||
| 45012_TS_DEWT_072014.nc | 26-Oct-2024 20:05 | 449802 | ||
| 45012_TS_DEWT_072015.nc | 26-Oct-2024 20:06 | 429469 | ||
| 45012_TS_DEWT_072016.nc | 26-Oct-2024 20:06 | 995739 | ||
| 45012_TS_DEWT_072017.nc | 26-Oct-2024 20:06 | 1112148 | ||
| 45012_TS_DEWT_072018.nc | 26-Oct-2024 20:06 | 1114072 | ||
| 45012_TS_DEWT_072019.nc | 26-Oct-2024 20:06 | 5585988 | ||
| 45012_TS_DEWT_072020.nc | 26-Oct-2024 20:06 | 5447217 | ||
| 45012_TS_DEWT_072021.nc | 26-Oct-2024 20:06 | 429830 | ||
| 45012_TS_DEWT_072022.nc | 26-Oct-2024 20:06 | 443202 | ||
| 45012_TS_DEWT_072023.nc | 26-Oct-2024 20:06 | 450198 | ||
| 45012_TS_DEWT_072025.nc | 01-Aug-2025 05:10 | 450178 | ||
| 45012_TS_DEWT_082002.nc | 26-Oct-2024 20:06 | 429516 | ||
| 45012_TS_DEWT_082003.nc | 26-Oct-2024 20:06 | 442254 | ||
| 45012_TS_DEWT_082004.nc | 26-Oct-2024 20:06 | 449507 | ||
| 45012_TS_DEWT_082005.nc | 26-Oct-2024 20:06 | 450790 | ||
| 45012_TS_DEWT_082006.nc | 26-Oct-2024 20:06 | 429834 | ||
| 45012_TS_DEWT_082007.nc | 26-Oct-2024 20:06 | 1144157 | ||
| 45012_TS_DEWT_082008.nc | 26-Oct-2024 20:06 | 1265045 | ||
| 45012_TS_DEWT_082009.nc | 26-Oct-2024 20:06 | 1099238 | ||
| 45012_TS_DEWT_082010.nc | 26-Oct-2024 20:06 | 5379590 | ||
| 45012_TS_DEWT_082011.nc | 26-Oct-2024 20:06 | 5496742 | ||
| 45012_TS_DEWT_082012.nc | 26-Oct-2024 20:07 | 449354 | ||
| 45012_TS_DEWT_082013.nc | 26-Oct-2024 20:07 | 429810 | ||
| 45012_TS_DEWT_082014.nc | 26-Oct-2024 20:07 | 449552 | ||
| 45012_TS_DEWT_082015.nc | 26-Oct-2024 20:07 | 450023 | ||
| 45012_TS_DEWT_082016.nc | 26-Oct-2024 20:07 | 429835 | ||
| 45012_TS_DEWT_082017.nc | 26-Oct-2024 20:07 | 429840 | ||
| 45012_TS_DEWT_082018.nc | 26-Oct-2024 20:07 | 451283 | ||
| 45012_TS_DEWT_082019.nc | 26-Oct-2024 20:07 | 1268473 | ||
| 45012_TS_DEWT_082020.nc | 26-Oct-2024 20:07 | 1009694 | ||
| 45012_TS_DEWT_082021.nc | 26-Oct-2024 20:07 | 1265402 | ||
| 45012_TS_DEWT_082022.nc | 26-Oct-2024 20:07 | 1266328 | ||
| 45012_TS_DEWT_082023.nc | 26-Oct-2024 20:07 | 1266715 | ||
| 45012_TS_DEWT_082025.nc | 01-Sep-2025 04:58 | 1262991 | ||
| 45012_TS_DEWT_092002.nc | 26-Oct-2024 20:07 | 447922 | ||
| 45012_TS_DEWT_092003.nc | 26-Oct-2024 20:07 | 428805 | ||
| 45012_TS_DEWT_092004.nc | 26-Oct-2024 20:07 | 431529 | ||
| 45012_TS_DEWT_092005.nc | 26-Oct-2024 20:07 | 447963 | ||
| 45012_TS_DEWT_092006.nc | 26-Oct-2024 20:07 | 428804 | ||
| 45012_TS_DEWT_092007.nc | 26-Oct-2024 20:08 | 428805 | ||
| 45012_TS_DEWT_092008.nc | 26-Oct-2024 20:08 | 449085 | ||
| 45012_TS_DEWT_092009.nc | 26-Oct-2024 20:08 | 1032803 | ||
| 45012_TS_DEWT_092010.nc | 26-Oct-2024 20:08 | 1106072 | ||
| 45012_TS_DEWT_092011.nc | 26-Oct-2024 20:08 | 1028962 | ||
| 45012_TS_DEWT_092012.nc | 26-Oct-2024 20:08 | 1029413 | ||
| 45012_TS_DEWT_092013.nc | 26-Oct-2024 20:08 | 1108962 | ||
| 45012_TS_DEWT_092014.nc | 26-Oct-2024 20:08 | 449830 | ||
| 45012_TS_DEWT_092015.nc | 26-Oct-2024 20:08 | 429812 | ||
| 45012_TS_DEWT_092016.nc | 26-Oct-2024 20:08 | 429831 | ||
| 45012_TS_DEWT_092017.nc | 26-Oct-2024 20:08 | 449802 | ||
| 45012_TS_DEWT_092018.nc | 26-Oct-2024 20:08 | 429827 | ||
| 45012_TS_DEWT_092019.nc | 26-Oct-2024 20:08 | 429832 | ||
| 45012_TS_DEWT_092020.nc | 26-Oct-2024 20:08 | 450898 | ||
| 45012_TS_DEWT_092021.nc | 26-Oct-2024 20:08 | 1265300 | ||
| 45012_TS_DEWT_092022.nc | 26-Oct-2024 20:08 | 430697 | ||
| 45012_TS_DEWT_092023.nc | 26-Oct-2024 20:08 | 1266911 | ||
| 45012_TS_DEWT_092025.nc | 01-Oct-2025 04:31 | 1265480 | ||
| 45012_TS_DEWT_102002.nc | 26-Oct-2024 20:08 | 1267221 | ||
| 45012_TS_DEWT_102003.nc | 26-Oct-2024 20:08 | 1437148 | ||
| 45012_TS_DEWT_102004.nc | 26-Oct-2024 20:09 | 432104 | ||
| 45012_TS_DEWT_102005.nc | 26-Oct-2024 20:09 | 448932 | ||
| 45012_TS_DEWT_102006.nc | 26-Oct-2024 20:09 | 423740 | ||
| 45012_TS_DEWT_102007.nc | 26-Oct-2024 20:09 | 428781 | ||
| 45012_TS_DEWT_102008.nc | 26-Oct-2024 20:09 | 429491 | ||
| 45012_TS_DEWT_102009.nc | 26-Oct-2024 20:09 | 448459 | ||
| 45012_TS_DEWT_102010.nc | 26-Oct-2024 20:09 | 444436 | ||
| 45012_TS_DEWT_102011.nc | 26-Oct-2024 20:09 | 429494 | ||
| 45012_TS_DEWT_102012.nc | 26-Oct-2024 20:09 | 450094 | ||
| 45012_TS_DEWT_102013.nc | 26-Oct-2024 20:09 | 1112565 | ||
| 45012_TS_DEWT_102014.nc | 26-Oct-2024 20:09 | 1114965 | ||
| 45012_TS_DEWT_102015.nc | 26-Oct-2024 20:09 | 1003419 | ||
| 45012_TS_DEWT_102016.nc | 26-Oct-2024 20:09 | 1114601 | ||
| 45012_TS_DEWT_102017.nc | 26-Oct-2024 20:09 | 1112356 | ||
| 45012_TS_DEWT_102018.nc | 26-Oct-2024 20:09 | 1115974 | ||
| 45012_TS_DEWT_102019.nc | 26-Oct-2024 20:09 | 1113663 | ||
| 45012_TS_DEWT_102020.nc | 26-Oct-2024 20:09 | 3346208 | ||
| 45012_TS_DEWT_102021.nc | 26-Oct-2024 20:09 | 450535 | ||
| 45012_TS_DEWT_102022.nc | 26-Oct-2024 20:10 | 449221 | ||
| 45012_TS_DEWT_102023.nc | 26-Oct-2024 20:10 | 449821 | ||
| 45012_TS_DEWT_102024.nc | 12-Jan-2025 20:43 | 436613 | ||
| 45012_TS_DEWT_102025.nc | 01-Nov-2025 06:32 | 434432 | ||
| 45012_TS_DEWT_112002.nc | 26-Oct-2024 20:10 | 429832 | ||
| 45012_TS_DEWT_112003.nc | 26-Oct-2024 20:10 | 450478 | ||
| 45012_TS_DEWT_112004.nc | 26-Oct-2024 20:10 | 432671 | ||
| 45012_TS_DEWT_112005.nc | 26-Oct-2024 20:10 | 425724 | ||
| 45012_TS_DEWT_112006.nc | 26-Oct-2024 20:10 | 648720 | ||
| 45012_TS_DEWT_112007.nc | 26-Oct-2024 20:10 | 1112594 | ||
| 45012_TS_DEWT_112008.nc | 26-Oct-2024 20:10 | 1023770 | ||
| 45012_TS_DEWT_112010.nc | 26-Oct-2024 20:10 | 1264118 | ||
| 45012_TS_DEWT_112011.nc | 26-Oct-2024 20:10 | 1264812 | ||
| 45012_TS_DEWT_112012.nc | 26-Oct-2024 20:10 | 464728 | ||
| 45012_TS_DEWT_112013.nc | 26-Oct-2024 20:10 | 1264610 | ||
| 45012_TS_DEWT_112014.nc | 26-Oct-2024 20:10 | 1268622 | ||
| 45012_TS_DEWT_112015.nc | 26-Oct-2024 20:10 | 1263761 | ||
| 45012_TS_DEWT_112016.nc | 26-Oct-2024 20:10 | 1531131 | ||
| 45012_TS_DEWT_112017.nc | 26-Oct-2024 20:10 | 448541 | ||
| 45012_TS_DEWT_112018.nc | 26-Oct-2024 20:10 | 448492 | ||
| 45012_TS_DEWT_112019.nc | 26-Oct-2024 20:10 | 447826 | ||
| 45012_TS_DEWT_112020.nc | 26-Oct-2024 20:10 | 448948 | ||
| 45012_TS_DEWT_112021.nc | 26-Oct-2024 20:11 | 448884 | ||
| 45012_TS_DEWT_112022.nc | 26-Oct-2024 20:11 | 429491 | ||
| 45012_TS_DEWT_112023.nc | 26-Oct-2024 20:11 | 449830 | ||
| 45012_TS_DEWT_112024.nc | 16-Jan-2025 17:45 | 449333 | ||
| 45012_TS_DEWT_112025.nc | 15-Nov-2025 07:59 | 448834 | ||
| 45012_TS_DEWT_122003.nc | 26-Oct-2024 20:11 | 1117979 | ||
| 45012_TS_DEWT_122005.nc | 26-Oct-2024 20:11 | 1113423 | ||
| 45012_TS_DEWT_122009.nc | 26-Oct-2024 20:11 | 1027270 | ||
| 45012_TS_DEWT_122010.nc | 26-Oct-2024 20:11 | 1111223 | ||
| 45012_TS_DEWT_122013.nc | 26-Oct-2024 20:11 | 1114271 | ||
| 45012_TS_DEWT_122015.nc | 26-Oct-2024 20:11 | 1114855 | ||
| 45012_TS_DEWT_122016.nc | 26-Oct-2024 20:11 | 1109841 | ||
| 45012_TS_DEWT_122017.nc | 26-Oct-2024 20:11 | 1113486 | ||
| 45012_TS_DEWT_122022.nc | 26-Oct-2024 20:11 | 450500 | ||
| 45012_TS_DEWT_122023.nc | 26-Oct-2024 20:12 | 449571 | ||
| 45012_TS_DEWT_122024.nc | 19-Jan-2025 07:13 | 450036 | ||